| time (UTC) | temp F | wind direction | speed knots | gust knots | rain 1hr in | rain 24hr in | rain mn in | humidity % | barometer mb |
| 20260506062037 | 51 | 268 | 4.3 | 9.6 | 0.00 | 0.54 | 0.00 | 99 | 1007.9 |
| 20260506042025 | 51 | 261 | 3.5 | 7.0 | 0.00 | 0.54 | 0.00 | 99 | 1007.5 |
| 20260506034112 | 50 | 267 | 2.6 | 6.1 | 0.00 | 0.54 | 0.00 | 99 | 1007.6 |
| 20260506030056 | 50 | 289 | 0.9 | 3.5 | 0.00 | 0.54 | 0.00 | 99 | 1007.8 |
| 20260506022042 | 50 | 328 | 0.9 | 3.5 | 0.00 | 0.54 | 0.00 | 99 | 1007.9 |
| 20260506014028 | 50 | 251 | 0.9 | 1.7 | 0.00 | 0.54 | 0.00 | 99 | 1008.0 |
| 20260506010114 | 50 | 212 | 0.0 | 3.5 | 0.00 | 0.54 | 0.00 | 99 | 1008.1 |
| 20260506002059 | 50 | 270 | 0.0 | 3.5 | 0.00 | 0.54 | 0.00 | 99 | 1008.2 |
| 20260505234045 | 50 | 0.0 | 0.0 | 0.00 | 0.54 | 0.00 | 99 | 1008.4 | |
| 20260505230030 | 51 | 0.0 | 0.0 | 0.00 | 0.54 | 0.00 | 99 | 1008.3 | |
| 20260505222017 | 51 | 0.0 | 0.0 | 0.00 | 0.54 | 0.00 | 99 | 1008.4 | |
| 20260505214102 | 52 | 0.0 | 0.0 | 0.00 | 0.54 | 0.54 | 99 | 1008.5 | |
| 20260505210048 | 52 | 0.0 | 0.0 | 0.00 | 0.54 | 0.54 | 99 | 1008.7 | |
| 20260505202035 | 52 | 0.0 | 0.0 | 0.00 | 0.54 | 0.54 | 99 | 1008.5 | |
| 20260505194020 | 53 | 278 | 0.0 | 3.5 | 0.01 | 0.54 | 0.54 | 99 | 1007.5 |
| 20260505190107 | 53 | 306 | 3.5 | 7.0 | 0.44 | 0.54 | 0.54 | 99 | 1006.5 |
| 20260505182053 | 53 | 267 | 7.0 | 12.2 | 0.41 | 0.41 | 0.41 | 99 | 1008.1 |
| 20260505174039 | 61 | 135 | 0.9 | 1.7 | 0.02 | 0.02 | 0.02 | 90 | 1006.6 |
| 20260505170024 | 62 | 10 | 1.7 | 5.2 | 0.00 | 0.00 | 0.00 | 85 | 1005.9 |
| 20260505162111 | 65 | 20 | 2.6 | 7.8 | 0.00 | 0.00 | 0.00 | 76 | 1006.2 |
| 20260505122048 | 71 | 123 | 0.9 | 3.5 | 0.00 | 0.00 | 0.00 | 58 | 1007.9 |
| 20260505114032 | 71 | 194 | 1.7 | 5.2 | 0.00 | 0.00 | 0.00 | 59 | 1008.1 |
| 20260505102105 | 70 | 117 | 3.5 | 6.1 | 0.00 | 0.00 | 0.00 | 64 | 1008.9 |
| 20260505094050 | 68 | 135 | 4.3 | 7.8 | 0.00 | 0.00 | 0.00 | 66 | 1009.2 |
| 20260505090036 | 67 | 141 | 3.5 | 7.8 | 0.00 | 0.00 | 0.00 | 67 | 1009.5 |
| 20260505082022 | 67 | 117 | 3.5 | 6.1 | 0.00 | 0.00 | 0.00 | 72 | 1009.9 |